Home   Weather   Buenos Aires   Past weeks

Flag for Argentina Past Weather in Buenos Aires, Argentina — Yesterday and Last 2 Weeks

Now
88 °F

Scattered clouds.


Feels Like: 94 °F
Forecast: 78 / 86 °F
Wind: 9 mph from Northeast

Location: Buenos Aires Airport

Current Time: Feb 27, 2017 at 3:35:17 pm

Latest Report: Feb 27, 2017 at 3:00 pm


Visibility: N/A

Pressure: 29.77 "Hg

Humidity: 59%

Dew Point: 72 °F

Location of Buenos AiresLocation

Past Weather in Buenos Aires — Graph

°F

Buenos Aires Temperature Yesterday

Maximum temperature yesterday: 88 °F (at 3:00 pm)
Minimum temperature yesterday: 81 °F (at 7:00 am)
Average temperature yesterday: 84 °F

High & Low Weather Summary for the Past Weeks

 TemperatureHumidityPressure
High95 °F (Feb 23, 5:00 pm)100% (Feb 18, 6:00 am)30.04 "Hg (Feb 18, 6:00 am)
Low68 °F (Feb 13, 5:00 am)41% (Feb 15, 5:00 pm)29.62 "Hg (Feb 18, 4:00 am)
Average79 °F77%29.85 "Hg
* Reported Feb 12 2:00 pm — Feb 27 2:00 pm, Buenos Aires, Weather by CustomWeather, © 2017

Note: Actual official high and low records may vary slightly from our data, if they occured in-between our weather recording intervals... More about our weather records

Advertising

Buenos Aires Weather History for the Previous 24 Hours

Scroll right to see more
 ConditionsComfort  
Time TempWeatherWind HumidityBarometerVisibility
2:00 pm
Mon, Feb 27
88 °FScattered clouds.9 mph62%29.80 "HgN/A
1:00 pm86 °FPassing clouds.12 mph62%29.80 "HgN/A
12:00 pm86 °FPassing clouds.12 mph66%29.83 "HgN/A
11:00 am84 °FSunny.10 mph66%29.83 "Hg10 mi
10:00 am82 °FSunny.10 mph70%29.86 "Hg10 mi
9:00 am81 °FSunny.13 mph74%29.86 "Hg10 mi
8:00 am79 °FSunny.9 mph79%29.83 "Hg10 mi
7:00 am79 °FPassing clouds.8 mph79%29.83 "HgN/A
6:00 am77 °FClear.9 mph83%29.80 "Hg10 mi
5:00 am75 °FPassing clouds.7 mph83%29.83 "HgN/A
4:00 am77 °FPassing clouds.6 mph79%29.83 "HgN/A
3:00 am82 °FClear.7 mph74%29.86 "Hg10 mi
2:00 am82 °FClear.12 mph74%29.83 "Hg10 mi
1:00 am84 °FClear.10 mph66%29.86 "Hg10 mi
12:00 am84 °FClear.9 mph70%29.86 "Hg10 mi
11:00 pm
Sun, Feb 26
84 °FClear.6 mph79%29.86 "Hg10 mi
10:00 pm86 °FPassing clouds.5 mph79%29.86 "HgN/A
9:00 pm86 °FPassing clouds.5 mph75%29.83 "HgN/A
8:00 pm86 °FPassing clouds.5 mph79%29.83 "HgN/A
7:00 pm86 °FPassing clouds.5 mph79%29.83 "HgN/A
6:00 pm88 °FPassing clouds.7 mph70%29.83 "HgN/A
5:00 pm88 °FPartly sunny.6 mph70%29.83 "HgN/A
4:00 pm88 °FScattered clouds.8 mph66%29.83 "HgN/A
3:00 pm88 °FScattered clouds.7 mph70%29.86 "HgN/A
Weather by CustomWeather, © 2017

See weather overviewHow to use our weather pages